SL-8 DEB, 21160

Orbit data source: Space-Track

SL-8 DEB, 21160 is space debris in LEO originally from a launch on Tue, 12 Feb 1991 UTC launched from the Plesetsk Missile And Space Complex (PKMTR). Debris objects in space refer to the collection of defunct objects orbiting the Earth. Examples of debris include non-operational satellites, rocket bodies, and fragments generated from explosions, collisions, or faulty payload assembly.

Loading next visibility...
Identifier
21160, 1991-009X
Orbit
LEO
Country
Flag of CISCIS
Related business
Manufacturer
Unknown
Mission
Spacecraft
Bus & Motor
Unknown
Mass
Unknown
Launch date (UTC)
1991-02-12 (35 years ago)
Launch vehicle
Unknown
Launch site
Plesetsk Missile And Space Complex (PKMTR)
Object type
Payload
Rocket body
Debris
Shape & HBR
Unknown shape, 0.3 m
Radar Cross Section
Medium (>0.1 m² and <1 m²)

Expand to show TLE details & history
Last TLE update: 2 days ago

TLE from 2 days ago
0 SL-8 DEB
1 21160U 91009X   26171.35106045  .00000003  00000-0  14741-3 0  9993
2 21160  74.0419  37.5720 0130957 102.9157  71.4333 12.24771102577918
Epoch: 2026-06-20T08:25Z
TLE epoch observation values (Epoch: 2026-06-20T08:25:31.622Z)
Latitude
3.98052°
Longitude
-178.51129°
Altitude
1,541.828 km
Speed
7.11 km/s
True Right ascension
14h 25m 44s
True Declination
3° 57' 33"
Sunlit
Object was in daylight at epoch
Visualization orbit readout
Latitude
Unknown
Longitude
Unknown
Altitude
Unknown
Speed
Unknown
Apparent Right ascension
Unknown
Apparent Declination
Unknown
Sunlit
N/A
Visualization observer readout
Local Sidereal Time
05:18:47
Azimuth
Unknown
Elevation
Unknown
Doppler factor
Unknown
Orbital elements
Apogee altitude
1,673.773 km
Perigee altitude
1,465.609 km
Semi-major axis
7,947.828 km
Eccentricity
0.0131
Inclination
74.0419°
RAAN
37.572°
Arg. of periapsis
102.9157°
True anomaly
72.86316°
Mean anomaly
71.4333°
Eccentric anomaly
72.1475°
Mean motion
3.06317 °/min
Orbital period
117.53 mins
BSTAR
0.00014741
Loading maneuver chart data...
Computing Atmospheric mass density...
Loading historical data...
Loading historical data...
Loading historical data...
Loading historical data...
Loading historical data...
Loading historical data...
Loading historical data...

Documentation

Showing up to 5 results
|